#timestamp,LO_Frequency,Hit 
1499878815.9,286047019.7,N
1499878835.7,286047017.5,N
1499878855.6,286047020.4,N
1499878875.4,286047020.4,N
1499878895.2,286047019.5,N
1499878915.1,286047021.9,N
1499878916.0,286047021.9,N
1499878935.8,286047021.1,N
1499878955.7,286047021.3,N
1499878975.5,286047020.7,N
1499878995.3,286047022.0,N
1499879015.2,286047021.5,N
1499879035.0,286047021.2,N
1499879035.9,286047021.2,N
1499879055.8,286047018.9,N
1499879075.6,286047021.8,N
1499879095.4,286047021.7,N
1499879115.3,286047020.9,N
1499879135.1,286047021.0,N
1499879155.8,286047021.0,N
1499879175.7,286047021.1,N
1499879195.5,286047022.4,N
1499879215.3,286047025.0,N
1499879235.2,286047024.8,N
1499879255.0,286047022.5,N
1499879255.9,286047022.5,N
1499879275.8,286047022.5,N
1499879295.6,286047024.9,N
1499879315.4,286047024.0,N
1499879335.3,286047022.2,N
1499879355.1,286047022.5,N
1499879375.9,286047022.7,N
1499879395.7,286047024.7,N
1499879415.5,286047022.1,N
1499879435.4,286047024.1,N
1499879455.2,286047024.6,N
1499879475.0,286047024.2,N
1499879475.9,286047024.2,N
1499879495.8,286047023.9,N
1499879515.6,286047026.8,N
1499879535.5,286047026.4,N
1499879555.3,286047023.9,N
1499879575.1,286047023.7,N
1499879595.9,286047024.2,N
1499879615.7,286047026.5,N
1499879635.5,286047026.6,N
1499879655.4,286047024.8,N
1499879675.2,286047024.7,N
1499879695.0,286047026.8,N
1499879696.0,286047026.8,N
1499879715.8,286047024.0,N
1499879735.6,286047024.3,N
1499879755.5,286047026.4,N
1499879775.3,286047027.9,N
1499879795.1,286047027.5,N
1499879815.9,286047027.5,N
1499879835.7,286047027.5,N
1499879855.5,286047028.3,N
1499879875.4,286047027.2,N
1499879895.2,286047027.4,N
1499879915.1,286047027.8,N
1499879916.0,286047027.8,N
1499879935.8,286047028.1,N
1499879955.6,286047028.4,N
1499880005.5,286047025.6,Y
1499880015.4,286047014.4,N
1499880035.3,286047002.2,N
1499880055.1,286047000.3,N
1499880075.8,286047002.7,N
1499880095.7,286046999.7,N
1499880115.5,286047001.8,N
1499880135.4,286047004.3,N
1499880155.2,286047001.6,N
1499880175.0,286047002.5,N
1499880175.9,286047002.5,N
1499880195.8,286047001.3,N
1499880215.6,286047004.1,N
1499880235.4,286047003.1,N
1499880255.3,286047005.8,N
1499880275.1,286047003.4,N
1499880295.9,286047003.3,N
1499880315.7,286047003.3,N
1499880335.5,286047006.0,N
1499880355.4,286047001.3,N
1499880375.2,286047001.4,N
1499880395.0,286047001.5,N
1499880395.9,286047001.5,N
1499880415.8,286047003.7,N
1499880435.6,286047003.9,N
1499880455.5,286047003.4,N
1499880475.3,286047003.3,N
1499880495.1,286047003.1,N
1499880515.9,286047003.5,N
1499880535.7,286047001.3,N
1499880555.5,286047003.3,N
1499880575.4,286047005.3,N
1499880595.2,286047005.2,N
1499880615.0,286047005.0,N
1499880616.0,286047005.0,N
1499880635.8,286047007.1,N
1499880655.6,286047005.8,N
1499880675.5,286047002.9,N
1499880695.3,286047004.8,N
1499880715.1,286047007.5,N
1499880735.9,286047005.8,N
1499880755.7,286047003.4,N
1499880775.6,286047003.7,N
1499880795.4,286047003.8,N
1499880815.2,286047005.7,N
1499880835.1,286047005.2,N
1499880866.0,286047003.0,Y
1499880875.0,286047003.0,N
1499880875.9,286047003.0,N
1499880895.8,286047002.8,N
1499880915.6,286047001.0,N
1499880935.4,286047000.1,N
1499880955.3,286047001.7,N
1499880975.1,286047004.0,N
1499880995.8,286047004.3,N
1499881015.7,286047004.4,N
1499881035.5,286047002.4,N
1499881055.4,286047000.1,N
1499881075.2,286047002.7,N
1499881095.0,286047000.5,N
1499881095.9,286047000.5,N
1499881115.8,286047000.7,N
1499881135.6,286046999.8,N
1499881155.4,286046999.8,N
1499881175.3,286047003.7,N
1499881195.1,286047003.8,N
1499881215.9,286047003.4,N
1499881235.7,286047011.9,N
1499881255.5,286047003.0,N
1499881275.4,286047005.8,N
1499881295.2,286047005.7,N
1499881315.0,286047005.3,N
1499881315.9,286047005.3,N
1499881335.8,286047005.8,N
1499881355.6,286047005.3,N
1499881375.5,286047007.2,N
1499881395.3,286047007.1,N
1499881415.1,286047005.5,N
1499881435.9,286047005.9,N
1499881455.7,286047005.1,N
1499881475.5,286047005.2,N
1499881495.4,286047004.8,N
1499881515.2,286047005.5,N
1499881535.1,286047004.9,N
1499881536.0,286047004.9,N
1499881555.8,286047006.6,N
1499881575.6,286047008.8,N
1499881595.5,286047008.7,N
1499881615.3,286047007.8,N
1499881635.1,286047010.4,N
1499881655.9,286047010.0,N
1499881675.7,286047008.6,N
1499881695.6,286047006.1,N
1499881715.4,286047006.2,N
1499881735.2,286047009.0,N
1499881755.1,286047008.6,N
1499881756.0,286047008.6,N
1499881775.8,286047006.3,N
1499881795.6,286047007.1,N
1499881815.5,286047006.1,N
1499881835.3,286047008.5,N
1499881855.2,286047007.0,N
1499881875.9,286047007.6,N
1499881895.7,286047005.0,N
1499881915.6,286047004.9,N
1499881935.4,286047006.6,N
1499881955.2,286047008.9,N
1499881975.1,286047008.1,N
1499881976.0,286047008.1,N
1499881995.8,286047008.6,N
1499882015.7,286047007.9,N
1499882035.5,286047007.8,N
1499882055.3,286047008.5,N
1499882075.2,286047006.1,N
1499882095.0,286047008.0,N
1499882095.9,286047008.0,N
1499882115.8,286047008.1,N
1499882135.6,286047007.7,N
1499882155.4,286047010.8,N
1499882175.3,286047010.8,N
1499882195.1,286047009.6,N
1499882215.8,286047012.3,N
1499882235.7,286047009.5,N
1499882255.5,286047010.5,N
1499882275.4,286047010.5,N
1499882295.2,286047012.0,N
1499882315.0,286047013.9,N
1499882315.9,286047013.9,N
1499882335.8,286047013.6,N
1499882355.6,286047009.8,N
1499882375.4,286047010.0,N
1499882395.3,286047009.6,N
